Hourly Data Report for July 17, 2021

SWAN RIVER RCS
MANITOBA
Current Station Operator: ECCC - MSC

52°06'53.900" N
101°13'58.500" W
334.80 m
504K80K
71443
WEQ

Download Data

Hourly Data (July 2021)
Hourly Data Report for July 17, 2021
TIME
LST
Temp Definition
°C
Dew Point Definition
°C
Rel Hum Definition
%
Precip. Amount Definition
mm

Wind Dir Definition
10's deg

Wind Spd Definition
km/h
Visibility Definition
km
Stn Press Definition
kPa
Hmdx Definition


Wind Chill Definition


Weather Definition


00:00 19.9 15.2 74 0.0 8 7   97.55     LegendNANA
01:00 18.8 14.5 76 0.0 7 6   97.59     LegendNANA
02:00 17.7 13.8 78 0.0 5 8   97.60     LegendNANA
03:00 17.0 14.1 83 0.0 5 8   97.65     LegendNANA
04:00 16.6 14.3 86 0.0 7 7   97.68     LegendNANA
05:00 16.7 14.3 86 0.0 6 11   97.74     LegendNANA
06:00 16.7 14.1 84 0.0 4 10   97.80     LegendNANA
07:00 18.5 14.2 76 0.0 4 17   97.86     LegendNANA
08:00 19.5 15.0 75 0.0 4 21   97.91     LegendNANA
09:00 20.1 15.5 75 0.0 4 20   97.93     LegendNANA
10:00 21.2 16.5 74 0.0 3 24   97.91 26   LegendNANA
11:00 22.8 16.2 66 0.0 6 21   97.82 28   LegendNANA
12:00 23.1 16.6 66 0.0 4 26   97.83 28   LegendNANA
13:00 24.7 17.0 62 0.0 3 25   97.87 30   LegendNANA
14:00 25.8 17.8 62 0.0 4 24   97.84 32   LegendNANA
15:00 25.3 17.8 63 0.0 4 27   97.80 31   LegendNANA
16:00 25.9 17.1 58 0.0 6 25   97.75 31   LegendNANA
17:00 25.4 17.4 61 0.0 7 19   97.79 31   LegendNANA
18:00 24.4 17.7 66 0.0 6 22   97.84 30   LegendNANA
19:00 23.2 17.6 71 0.0 5 19   97.85 29   LegendNANA
20:00 21.7 17.3 76 0.0 4 16   97.87 27   LegendNANA
21:00 20.7 16.5 77 0.0 5 15   97.87 26   LegendNANA
22:00 18.6 15.4 81 0.0 4 19   97.87     LegendNANA
23:00 16.8 14.7 88 0.0 2 15   97.89     LegendNANA

Notes on Data Quality.

Legend

  • E = Estimated
  • M = Missing
  • NA = Not Available*
  • [empty] = Indicates an unobserved value
Date modified: